Year,Month,Day,Hour,Minute,Value (Times are PST for windspeed in km/hr)
2016,03,12,00,00,8.30
2016,03,12,00,01,9.20
2016,03,12,00,02,7.30
2016,03,12,00,03,7.60
2016,03,12,00,04,3.00
2016,03,12,00,05,7.00
2016,03,12,00,06,2.90
2016,03,12,00,07,2.70
2016,03,12,00,08,3.60
2016,03,12,00,09,3.40
2016,03,12,00,10,5.00
2016,03,12,00,11,5.60
2016,03,12,00,12,7.10
2016,03,12,00,13,9.40
2016,03,12,00,14,5.40
2016,03,12,00,15,3.40
2016,03,12,00,16,8.20
2016,03,12,00,17,7.40
2016,03,12,00,18,8.20
2016,03,12,00,19,7.40
2016,03,12,00,20,9.70
2016,03,12,00,21,6.60
2016,03,12,00,22,4.30
2016,03,12,00,23,6.90
2016,03,12,00,24,10.30
2016,03,12,00,25,4.20
2016,03,12,00,26,5.10
2016,03,12,00,27,6.70
2016,03,12,00,28,11.90
2016,03,12,00,29,6.20
2016,03,12,00,30,7.10
2016,03,12,00,31,4.60
2016,03,12,00,32,3.90
2016,03,12,00,33,5.50
2016,03,12,00,34,6.70
2016,03,12,00,35,3.30
2016,03,12,00,36,5.60
2016,03,12,00,37,5.50
2016,03,12,00,38,5.40
2016,03,12,00,39,2.40
2016,03,12,00,40,2.00
2016,03,12,00,41,6.40
2016,03,12,00,42,3.50
2016,03,12,00,43,4.80
2016,03,12,00,44,8.50
2016,03,12,00,45,2.40
2016,03,12,00,46,1.60
2016,03,12,00,47,1.70
2016,03,12,00,48,4.60
2016,03,12,00,49,4.40
2016,03,12,00,50,3.20
2016,03,12,00,51,3.90
2016,03,12,00,52,1.00
2016,03,12,00,53,1.60
2016,03,12,00,54,3.50
2016,03,12,00,55,2.80
2016,03,12,00,56,5.50
2016,03,12,00,57,2.60
2016,03,12,00,58,2.30
2016,03,12,00,59,1.60
2016,03,12,01,00,2.70
2016,03,12,01,01,1.50
2016,03,12,01,02,2.60
2016,03,12,01,03,0.50
2016,03,12,01,04,1.80
2016,03,12,01,05,3.20
2016,03,12,01,06,6.40
2016,03,12,01,07,2.70
2016,03,12,01,08,3.20
2016,03,12,01,09,6.20
2016,03,12,01,10,5.40
2016,03,12,01,11,6.20
2016,03,12,01,12,2.70
2016,03,12,01,13,7.50
2016,03,12,01,14,10.40
2016,03,12,01,15,5.00
2016,03,12,01,16,6.20
2016,03,12,01,17,5.70
2016,03,12,01,18,3.00
2016,03,12,01,19,5.40
2016,03,12,01,20,4.40
2016,03,12,01,21,3.90
2016,03,12,01,22,1.60
2016,03,12,01,23,2.80
2016,03,12,01,24,3.50
2016,03,12,01,25,5.70
2016,03,12,01,26,3.60
2016,03,12,01,27,10.90
2016,03,12,01,28,4.90
2016,03,12,01,29,3.30
2016,03,12,01,30,5.70
2016,03,12,01,31,4.20
2016,03,12,01,32,1.40
2016,03,12,01,33,3.90
2016,03,12,01,34,2.10
2016,03,12,01,35,3.00
2016,03,12,01,36,6.40
2016,03,12,01,37,4.60
2016,03,12,01,38,3.90
2016,03,12,01,39,8.60
2016,03,12,01,40,5.60
2016,03,12,01,41,6.10
2016,03,12,01,42,9.20
2016,03,12,01,43,4.80
2016,03,12,01,44,1.60
2016,03,12,01,45,6.60
2016,03,12,01,46,6.40
2016,03,12,01,47,7.20
2016,03,12,01,48,6.20
2016,03,12,01,49,6.40
2016,03,12,01,50,4.30
2016,03,12,01,51,7.90
2016,03,12,01,52,2.90
2016,03,12,01,53,9.40
2016,03,12,01,54,10.10
2016,03,12,01,55,3.00
2016,03,12,01,56,8.50
2016,03,12,01,57,3.80
2016,03,12,01,58,4.50
2016,03,12,01,59,7.40
2016,03,12,02,00,7.10
2016,03,12,02,01,11.10
2016,03,12,02,02,8.20
2016,03,12,02,03,7.20
2016,03,12,02,04,10.90
2016,03,12,02,05,9.50
2016,03,12,02,06,4.90
2016,03,12,02,07,6.10
2016,03,12,02,08,6.60
2016,03,12,02,09,7.20
2016,03,12,02,10,6.60
2016,03,12,02,11,2.40
2016,03,12,02,12,12.70
2016,03,12,02,13,5.00
2016,03,12,02,14,6.00
2016,03,12,02,15,8.80
2016,03,12,02,16,7.80
2016,03,12,02,17,7.40
2016,03,12,02,18,8.90
2016,03,12,02,19,9.00
2016,03,12,02,20,7.60
2016,03,12,02,21,6.10
2016,03,12,02,22,5.40
2016,03,12,02,23,8.60
2016,03,12,02,24,7.80
2016,03,12,02,25,8.50
2016,03,12,02,26,6.10
2016,03,12,02,27,5.20
2016,03,12,02,28,5.40
2016,03,12,02,29,5.80
2016,03,12,02,30,3.80
2016,03,12,02,31,3.70
2016,03,12,02,32,7.50
2016,03,12,02,33,3.10
2016,03,12,02,34,5.00
2016,03,12,02,35,6.80
2016,03,12,02,36,4.30
2016,03,12,02,37,1.80
2016,03,12,02,38,3.00
2016,03,12,02,39,3.10
2016,03,12,02,40,2.10
2016,03,12,02,41,3.60
2016,03,12,02,42,6.30
2016,03,12,02,43,2.30
2016,03,12,02,44,3.30
2016,03,12,02,45,8.10
2016,03,12,02,46,7.90
2016,03,12,02,47,9.20
2016,03,12,02,48,6.30
2016,03,12,02,49,8.40
2016,03,12,02,50,10.60
2016,03,12,02,51,9.80
2016,03,12,02,52,7.10
2016,03,12,02,53,7.80
2016,03,12,02,54,6.60
2016,03,12,02,55,7.00
2016,03,12,02,56,8.90
2016,03,12,02,57,6.10
2016,03,12,02,58,2.40
2016,03,12,02,59,2.70
2016,03,12,03,00,9.40
2016,03,12,03,01,6.20
2016,03,12,03,02,6.90
2016,03,12,03,03,5.90
2016,03,12,03,05,3.60
2016,03,12,03,06,4.00
2016,03,12,03,07,4.30
2016,03,12,03,08,6.20
2016,03,12,03,09,8.50
2016,03,12,03,10,9.40
2016,03,12,03,11,9.40
2016,03,12,03,12,12.70
2016,03,12,03,13,14.50
2016,03,12,03,14,12.90
2016,03,12,03,15,12.00
2016,03,12,03,16,10.20
2016,03,12,03,17,8.30
2016,03,12,03,18,5.60
2016,03,12,03,19,8.10
2016,03,12,03,20,10.40
2016,03,12,03,21,9.20
2016,03,12,03,22,9.60
2016,03,12,03,23,7.80
2016,03,12,03,24,8.70
2016,03,12,03,25,12.50
2016,03,12,03,26,14.70
2016,03,12,03,27,15.10
2016,03,12,03,28,12.90
2016,03,12,03,29,8.20
2016,03,12,03,30,5.40
2016,03,12,03,31,6.40
2016,03,12,03,32,8.00
2016,03,12,03,33,10.10
2016,03,12,03,34,9.60
2016,03,12,03,35,10.00
2016,03,12,03,36,4.60
2016,03,12,03,37,4.50
2016,03,12,03,38,5.80
2016,03,12,03,39,6.70
2016,03,12,03,40,5.70
2016,03,12,03,41,3.00
2016,03,12,03,42,5.80
2016,03,12,03,43,5.40
2016,03,12,03,44,3.70
2016,03,12,03,45,3.90
2016,03,12,03,46,0.70
2016,03,12,03,47,1.70
2016,03,12,03,48,1.60
2016,03,12,03,49,3.80
2016,03,12,03,50,1.60
2016,03,12,03,51,1.70
2016,03,12,03,52,1.40
2016,03,12,03,53,1.20
2016,03,12,03,54,2.80
2016,03,12,03,55,1.90
2016,03,12,03,56,1.50
2016,03,12,03,57,2.80
2016,03,12,03,58,4.30
2016,03,12,03,59,3.10
2016,03,12,04,00,3.00
2016,03,12,04,01,3.90
2016,03,12,04,02,2.80
2016,03,12,04,03,1.70
2016,03,12,04,04,1.30
2016,03,12,04,05,2.60
2016,03,12,04,06,5.30
2016,03,12,04,07,10.40
2016,03,12,04,08,6.10
2016,03,12,04,09,7.10
2016,03,12,04,10,6.60
2016,03,12,04,11,5.30
2016,03,12,04,12,3.00
2016,03,12,04,13,1.10
2016,03,12,04,14,0.50
2016,03,12,04,15,1.20
2016,03,12,04,16,0.80
2016,03,12,04,17,0.10
2016,03,12,04,18,1.70
2016,03,12,04,19,2.20
2016,03,12,04,20,2.30
2016,03,12,04,21,2.00
2016,03,12,04,22,2.10
2016,03,12,04,23,2.00
2016,03,12,04,24,2.10
2016,03,12,04,25,2.60
2016,03,12,04,26,5.60
2016,03,12,04,27,2.90
2016,03,12,04,28,5.70
2016,03,12,04,29,4.80
2016,03,12,04,30,5.70
2016,03,12,04,31,11.80
2016,03,12,04,32,10.70
2016,03,12,04,33,3.60
2016,03,12,04,34,5.20
2016,03,12,04,35,5.40
2016,03,12,04,36,6.00
2016,03,12,04,37,5.90
2016,03,12,04,38,2.40
2016,03,12,04,39,8.80
2016,03,12,04,40,6.30
2016,03,12,04,41,3.70
2016,03,12,04,42,1.60
2016,03,12,04,43,5.60
2016,03,12,04,44,8.00
2016,03,12,04,45,6.20
2016,03,12,04,46,3.40
2016,03,12,04,47,3.40
2016,03,12,04,48,5.20
2016,03,12,04,49,6.00
2016,03,12,04,50,2.90
2016,03,12,04,51,5.10
2016,03,12,04,52,5.40
2016,03,12,04,53,4.80
2016,03,12,04,54,2.80
2016,03,12,04,55,4.10
2016,03,12,04,56,4.00
2016,03,12,04,57,6.20
2016,03,12,04,58,3.20
2016,03,12,04,59,3.30
2016,03,12,05,00,9.30
2016,03,12,05,01,9.40
2016,03,12,05,02,4.80
2016,03,12,05,03,6.70
2016,03,12,05,04,6.80
2016,03,12,05,05,5.40
2016,03,12,05,06,3.30
2016,03,12,05,07,6.00
2016,03,12,05,08,4.90
2016,03,12,05,09,3.60
2016,03,12,05,10,4.20
2016,03,12,05,11,4.20
2016,03,12,05,12,3.10
2016,03,12,05,13,5.20
2016,03,12,05,14,3.30
2016,03,12,05,15,3.70
2016,03,12,05,16,1.70
2016,03,12,05,17,3.00
2016,03,12,05,18,3.40
2016,03,12,05,19,2.60
2016,03,12,05,20,1.80
2016,03,12,05,21,6.00
2016,03,12,05,22,5.00
2016,03,12,05,23,4.30
2016,03,12,05,24,6.40
2016,03,12,05,25,3.50
2016,03,12,05,26,5.70
2016,03,12,05,27,6.50
2016,03,12,05,28,6.80
2016,03,12,05,29,4.10
2016,03,12,05,30,3.40
2016,03,12,05,31,7.60
2016,03,12,05,32,6.50
2016,03,12,05,33,6.00
2016,03,12,05,34,1.70
2016,03,12,05,35,3.70
2016,03,12,05,36,3.60
2016,03,12,05,37,8.50
2016,03,12,05,38,7.70
2016,03,12,05,39,4.60
2016,03,12,05,40,7.60
2016,03,12,05,41,2.60
2016,03,12,05,42,5.80
2016,03,12,05,43,3.00
2016,03,12,05,44,1.90
2016,03,12,05,45,3.30
2016,03,12,05,46,6.00
2016,03,12,05,47,5.60
2016,03,12,05,48,5.10
2016,03,12,05,49,6.10
2016,03,12,05,50,6.60
2016,03,12,05,51,3.70
2016,03,12,05,52,4.20
2016,03,12,05,53,3.30
2016,03,12,05,54,2.00
2016,03,12,05,55,3.20
2016,03,12,05,56,2.60
2016,03,12,05,57,5.10
2016,03,12,05,58,6.30
2016,03,12,05,59,4.60
2016,03,12,06,00,3.80
2016,03,12,06,01,4.00
2016,03,12,06,02,3.60
2016,03,12,06,03,1.40
2016,03,12,06,04,3.20
2016,03,12,06,05,1.30
2016,03,12,06,06,4.20
2016,03,12,06,07,2.20
2016,03,12,06,08,2.50
2016,03,12,06,09,3.00
2016,03,12,06,10,2.90
2016,03,12,06,11,1.90
2016,03,12,06,12,3.50
2016,03,12,06,13,3.80
2016,03,12,06,14,2.80
2016,03,12,06,15,1.60
2016,03,12,06,16,6.50
2016,03,12,06,17,4.20
2016,03,12,06,18,2.90
2016,03,12,06,19,5.30
2016,03,12,06,20,3.30
2016,03,12,06,21,3.90
2016,03,12,06,22,2.40
2016,03,12,06,23,1.60
2016,03,12,06,24,2.90
2016,03,12,06,25,2.90
2016,03,12,06,26,3.40
2016,03,12,06,27,3.20
2016,03,12,06,28,2.40
2016,03,12,06,29,2.80
2016,03,12,06,30,5.40
2016,03,12,06,31,4.90
2016,03,12,06,32,2.00
2016,03,12,06,33,4.00
2016,03,12,06,34,4.00
2016,03,12,06,35,1.70
2016,03,12,06,36,4.00
2016,03,12,06,37,2.70
2016,03,12,06,38,2.40
2016,03,12,06,39,1.20
2016,03,12,06,40,0.40
2016,03,12,06,41,0.60
2016,03,12,06,42,0.60
2016,03,12,06,43,0.40
2016,03,12,06,44,4.20
2016,03,12,06,45,3.30
2016,03,12,06,46,6.00
2016,03,12,06,47,4.70
2016,03,12,06,48,2.90
2016,03,12,06,49,2.70
2016,03,12,06,50,3.40
2016,03,12,06,51,3.60
2016,03,12,06,52,5.50
2016,03,12,06,53,5.40
2016,03,12,06,54,3.30
2016,03,12,06,55,3.30
2016,03,12,06,56,6.40
2016,03,12,06,57,3.20
2016,03,12,06,58,5.30
2016,03,12,06,59,7.30
2016,03,12,07,00,7.70
2016,03,12,07,01,5.20
2016,03,12,07,02,5.10
2016,03,12,07,03,3.30
2016,03,12,07,04,4.20
2016,03,12,07,05,4.10
2016,03,12,07,06,5.70
2016,03,12,07,07,5.40
2016,03,12,07,08,5.00
2016,03,12,07,09,6.70
2016,03,12,07,10,6.50
2016,03,12,07,11,4.40
2016,03,12,07,12,5.90
2016,03,12,07,13,7.20
2016,03,12,07,14,3.70
2016,03,12,07,15,9.50
2016,03,12,07,16,10.10
2016,03,12,07,17,9.50
2016,03,12,07,18,8.20
2016,03,12,07,19,8.50
2016,03,12,07,20,5.50
2016,03,12,07,21,6.00
2016,03,12,07,22,4.90
2016,03,12,07,23,9.80
2016,03,12,07,24,8.90
2016,03,12,07,25,6.90
2016,03,12,07,26,7.00
2016,03,12,07,27,8.70
2016,03,12,07,28,7.30
2016,03,12,07,29,7.50
2016,03,12,07,30,5.20
2016,03,12,07,31,3.70
2016,03,12,07,32,8.30
2016,03,12,07,33,6.60
2016,03,12,07,34,5.40
2016,03,12,07,35,6.00
2016,03,12,07,36,5.30
2016,03,12,07,37,7.10
2016,03,12,07,38,4.80
2016,03,12,07,39,4.60
2016,03,12,07,40,3.20
2016,03,12,07,41,4.50
2016,03,12,07,42,6.40
2016,03,12,07,43,5.70
2016,03,12,07,44,3.90
2016,03,12,07,45,4.70
2016,03,12,07,46,5.90
2016,03,12,07,47,6.40
2016,03,12,07,48,4.30
2016,03,12,07,49,3.60
2016,03,12,07,50,4.20
2016,03,12,07,51,4.00
2016,03,12,07,52,5.10
2016,03,12,07,53,4.00
2016,03,12,07,54,2.50
2016,03,12,07,55,2.50
2016,03,12,07,56,2.10
2016,03,12,07,57,3.20
2016,03,12,07,58,2.00
2016,03,12,07,59,1.40
2016,03,12,08,00,2.60
2016,03,12,08,01,3.50
2016,03,12,08,02,3.20
2016,03,12,08,03,3.20
2016,03,12,08,04,2.00
2016,03,12,08,05,3.20
2016,03,12,08,06,1.70
2016,03,12,08,07,3.40
2016,03,12,08,08,3.30
2016,03,12,08,09,1.40
2016,03,12,08,10,4.20
2016,03,12,08,11,2.40
2016,03,12,08,12,3.40
2016,03,12,08,13,3.10
2016,03,12,08,14,1.90
2016,03,12,08,15,2.00
2016,03,12,08,16,1.80
2016,03,12,08,17,1.90
2016,03,12,08,18,1.00
2016,03,12,08,19,1.00
2016,03,12,08,20,2.60
2016,03,12,08,21,2.30
2016,03,12,08,22,2.40
2016,03,12,08,23,1.60
2016,03,12,08,24,2.00
2016,03,12,08,25,1.90
2016,03,12,08,26,2.60
2016,03,12,08,27,2.10
2016,03,12,08,28,1.50
2016,03,12,08,29,0.90
2016,03,12,08,30,0.70
2016,03,12,08,31,1.40
2016,03,12,08,32,0.70
2016,03,12,08,33,0.80
2016,03,12,08,34,1.10
2016,03,12,08,35,2.70
2016,03,12,08,36,3.30
2016,03,12,08,37,0.80
2016,03,12,08,38,0.70
2016,03,12,08,39,1.50
2016,03,12,08,40,1.70
2016,03,12,08,41,0.80
2016,03,12,08,42,0.40
2016,03,12,08,43,1.90
2016,03,12,08,44,2.90
2016,03,12,08,45,1.10
2016,03,12,08,46,1.60
2016,03,12,08,47,1.70
2016,03,12,08,48,0.90
2016,03,12,08,49,1.40
2016,03,12,08,50,0.10
2016,03,12,08,51,0.70
2016,03,12,08,52,0.80
2016,03,12,08,53,0.20
2016,03,12,08,54,0.00
2016,03,12,08,55,0.00
2016,03,12,08,56,0.00
2016,03,12,08,57,0.00
2016,03,12,08,58,0.10
2016,03,12,08,59,0.10
2016,03,12,09,00,0.10
2016,03,12,09,01,0.00
2016,03,12,09,02,0.20
2016,03,12,09,03,0.80
2016,03,12,09,04,1.00
2016,03,12,09,05,0.70
2016,03,12,09,06,0.30
2016,03,12,09,07,0.50
2016,03,12,09,08,0.70
2016,03,12,09,09,0.40
2016,03,12,09,10,0.00
2016,03,12,09,11,0.00
2016,03,12,09,12,0.50
2016,03,12,09,13,1.00
2016,03,12,09,14,1.50
2016,03,12,09,15,0.50
2016,03,12,09,16,0.10
2016,03,12,09,17,0.10
2016,03,12,09,18,0.10
2016,03,12,09,19,1.60
2016,03,12,09,20,1.70
2016,03,12,09,21,0.20
2016,03,12,09,22,0.00
2016,03,12,09,23,0.00
2016,03,12,09,24,1.10
2016,03,12,09,25,1.70
2016,03,12,09,26,1.50
2016,03,12,09,27,1.60
2016,03,12,09,28,1.70
2016,03,12,09,29,1.60
2016,03,12,09,30,2.10
2016,03,12,09,31,1.10
2016,03,12,09,32,1.60
2016,03,12,09,33,0.70
2016,03,12,09,34,0.20
2016,03,12,09,35,0.70
2016,03,12,09,36,1.60
2016,03,12,09,37,3.20
2016,03,12,09,38,2.60
2016,03,12,09,39,1.90
2016,03,12,09,40,1.60
2016,03,12,09,41,1.10
2016,03,12,09,42,0.70
2016,03,12,09,43,0.90
2016,03,12,09,44,1.90
2016,03,12,09,45,2.10
2016,03,12,09,46,1.10
2016,03,12,09,47,0.00
2016,03,12,09,48,0.10
2016,03,12,09,49,0.80
2016,03,12,09,50,0.40
2016,03,12,09,51,0.00
2016,03,12,09,52,0.90
2016,03,12,09,53,2.70
2016,03,12,09,54,2.90
2016,03,12,09,55,1.00
2016,03,12,09,56,0.20
2016,03,12,09,57,0.00
2016,03,12,09,58,0.00
2016,03,12,09,59,0.00
2016,03,12,10,00,0.10
2016,03,12,10,01,0.10
2016,03,12,10,02,0.10
2016,03,12,10,03,0.00
2016,03,12,10,04,1.20
2016,03,12,10,05,1.70
2016,03,12,10,06,1.30
2016,03,12,10,07,1.40
2016,03,12,10,08,0.40
2016,03,12,10,09,0.00
2016,03,12,10,10,0.00
2016,03,12,10,11,0.10
2016,03,12,10,12,0.10
2016,03,12,10,13,0.90
2016,03,12,10,14,1.40
2016,03,12,10,15,2.30
2016,03,12,10,16,2.60
2016,03,12,10,17,2.20
2016,03,12,10,18,3.20
2016,03,12,10,19,0.50
2016,03,12,10,20,0.50
2016,03,12,10,21,0.90
2016,03,12,10,22,3.00
2016,03,12,10,23,4.50
2016,03,12,10,24,4.80
2016,03,12,10,25,4.20
2016,03,12,10,26,4.90
2016,03,12,10,27,3.00
2016,03,12,10,28,2.60
2016,03,12,10,29,2.90
2016,03,12,10,30,2.00
2016,03,12,10,31,3.70
2016,03,12,10,32,2.90
2016,03,12,10,33,4.80
2016,03,12,10,34,5.00
2016,03,12,10,35,7.00
2016,03,12,10,36,5.80
2016,03,12,10,37,7.00
2016,03,12,10,38,6.10
2016,03,12,10,39,4.30
2016,03,12,10,40,4.30
2016,03,12,10,41,5.70
2016,03,12,10,42,6.70
2016,03,12,10,43,6.90
2016,03,12,10,44,6.10
2016,03,12,10,45,2.60
2016,03,12,10,46,3.20
2016,03,12,10,47,5.10
2016,03,12,10,48,6.40
2016,03,12,10,49,6.30
2016,03,12,10,50,6.60
2016,03,12,10,51,5.90
2016,03,12,10,52,7.80
2016,03,12,10,53,7.40
2016,03,12,10,54,5.40
2016,03,12,10,55,8.10
2016,03,12,10,56,6.20
2016,03,12,10,57,6.30
2016,03,12,10,58,3.60
2016,03,12,10,59,4.60
2016,03,12,11,00,3.30
2016,03,12,11,01,4.70
2016,03,12,11,02,3.20
2016,03,12,11,03,3.00
2016,03,12,11,04,2.80
2016,03,12,11,05,3.30
2016,03,12,11,06,1.30
2016,03,12,11,07,2.90
2016,03,12,11,08,4.40
2016,03,12,11,09,2.00
2016,03,12,11,10,2.90
2016,03,12,11,11,2.20
2016,03,12,11,12,5.70
2016,03,12,11,13,3.50
2016,03,12,11,14,4.80
2016,03,12,11,15,3.90
2016,03,12,11,16,4.50
2016,03,12,11,17,3.90
2016,03,12,11,18,2.00
2016,03,12,11,19,5.40
2016,03,12,11,20,2.70
2016,03,12,11,21,1.60
2016,03,12,11,22,3.50
2016,03,12,11,23,2.30
2016,03,12,11,24,6.80
2016,03,12,11,25,4.80
2016,03,12,11,26,5.20
2016,03,12,11,27,5.90
2016,03,12,11,28,3.70
2016,03,12,11,29,4.80
2016,03,12,11,30,2.60
2016,03,12,11,31,2.60
2016,03,12,11,32,4.60
2016,03,12,11,33,5.10
2016,03,12,11,34,1.70
2016,03,12,11,35,2.90
2016,03,12,11,36,3.40
2016,03,12,11,37,4.30
2016,03,12,11,38,3.40
2016,03,12,11,39,2.30
2016,03,12,11,40,4.80
2016,03,12,11,41,3.70
2016,03,12,11,42,3.80
2016,03,12,11,43,4.30
2016,03,12,11,44,4.20
2016,03,12,11,45,4.50
2016,03,12,11,46,7.50
2016,03,12,11,47,5.80
2016,03,12,11,48,4.80
2016,03,12,11,49,8.30
2016,03,12,11,50,6.70
2016,03,12,11,51,7.40
2016,03,12,11,52,8.30
2016,03,12,11,53,8.70
2016,03,12,11,54,8.40
2016,03,12,11,55,6.40
2016,03,12,11,56,5.70
2016,03,12,11,57,4.90
2016,03,12,11,58,7.50
2016,03,12,11,59,5.50
2016,03,12,12,00,6.80
2016,03,12,12,01,6.30
2016,03,12,12,02,8.10
2016,03,12,12,03,7.90
2016,03,12,12,04,7.60
2016,03,12,12,05,7.80
2016,03,12,12,06,10.40
2016,03,12,12,07,7.50
2016,03,12,12,08,6.10
2016,03,12,12,09,10.20
2016,03,12,12,10,11.70
2016,03,12,12,11,8.20
2016,03,12,12,12,7.50
2016,03,12,12,13,6.40
2016,03,12,12,14,5.70
2016,03,12,12,15,7.90
2016,03,12,12,16,7.20
2016,03,12,12,17,7.60
2016,03,12,12,18,10.90
2016,03,12,12,19,13.40
2016,03,12,12,20,13.10
2016,03,12,12,21,10.40
2016,03,12,12,22,12.00
2016,03,12,12,23,11.90
2016,03,12,12,24,9.50
2016,03,12,12,25,8.90
2016,03,12,12,26,14.70
2016,03,12,12,27,15.90
2016,03,12,12,28,11.40
2016,03,12,12,29,15.00
2016,03,12,12,30,13.20
2016,03,12,12,31,13.70
2016,03,12,12,32,8.30
2016,03,12,12,33,12.40
2016,03,12,12,34,12.90
2016,03,12,12,35,12.20
2016,03,12,12,36,10.40
2016,03,12,12,37,7.80
2016,03,12,12,38,6.60
2016,03,12,12,39,9.00
2016,03,12,12,40,8.00
2016,03,12,12,41,9.80
2016,03,12,12,42,8.40
2016,03,12,12,43,9.70
2016,03,12,12,44,12.20
2016,03,12,12,45,10.20
2016,03,12,12,46,5.30
2016,03,12,12,47,12.50
2016,03,12,12,48,12.50
2016,03,12,12,49,16.70
2016,03,12,12,50,13.00
2016,03,12,12,51,14.60
2016,03,12,12,52,13.60
2016,03,12,12,53,17.00
2016,03,12,12,54,12.50
2016,03,12,12,55,16.70
2016,03,12,12,56,12.80
2016,03,12,12,57,12.50
2016,03,12,12,58,6.90
2016,03,12,12,59,9.60
2016,03,12,13,00,7.60
2016,03,12,13,01,9.00
2016,03,12,13,02,13.60
2016,03,12,13,03,12.70
2016,03,12,13,04,12.40
2016,03,12,13,05,12.10
2016,03,12,13,06,14.00
2016,03,12,13,07,12.30
2016,03,12,13,08,13.70
2016,03,12,13,09,14.50
2016,03,12,13,10,17.80
2016,03,12,13,11,11.10
2016,03,12,13,12,8.60
2016,03,12,13,13,6.40
2016,03,12,13,14,9.40
2016,03,12,13,15,10.70
2016,03,12,13,16,10.70
2016,03,12,13,17,6.30
2016,03,12,13,18,5.30
2016,03,12,13,19,7.20
2016,03,12,13,20,9.40
2016,03,12,13,21,5.00
2016,03,12,13,22,9.60
2016,03,12,13,23,9.10
2016,03,12,13,24,10.10
2016,03,12,13,25,9.90
2016,03,12,13,26,13.30
2016,03,12,13,27,8.20
2016,03,12,13,28,9.50
2016,03,12,13,29,8.80
2016,03,12,13,30,15.00
2016,03,12,13,31,11.60
2016,03,12,13,32,7.90
2016,03,12,13,33,12.90
2016,03,12,13,34,13.70
2016,03,12,13,35,8.20
2016,03,12,13,36,12.50
2016,03,12,13,37,12.70
2016,03,12,13,38,8.10
2016,03,12,13,39,15.10
2016,03,12,13,40,15.30
2016,03,12,13,41,14.70
2016,03,12,13,42,12.80
2016,03,12,13,43,7.20
2016,03,12,13,44,12.80
2016,03,12,13,45,10.40
2016,03,12,13,46,10.70
2016,03,12,13,47,14.20
2016,03,12,13,48,13.80
2016,03,12,13,49,12.30
2016,03,12,13,50,7.70
2016,03,12,13,51,13.20
2016,03,12,13,52,6.30
2016,03,12,13,53,10.90
2016,03,12,13,54,7.70
2016,03,12,13,55,7.20
2016,03,12,13,56,9.00
2016,03,12,13,57,9.40
2016,03,12,13,58,8.60
2016,03,12,13,59,8.90
2016,03,12,14,00,11.70
2016,03,12,14,01,8.00
2016,03,12,14,02,7.20
2016,03,12,14,03,7.90
2016,03,12,14,04,9.80
2016,03,12,14,05,11.20
2016,03,12,14,06,8.30
2016,03,12,14,07,3.50
2016,03,12,14,08,4.80
2016,03,12,14,09,6.30
2016,03,12,14,10,7.50
2016,03,12,14,11,9.20
2016,03,12,14,12,9.70
2016,03,12,14,13,6.60
2016,03,12,14,14,7.30
2016,03,12,14,15,11.40
2016,03,12,14,16,8.00
2016,03,12,14,17,6.70
2016,03,12,14,18,8.60
2016,03,12,14,19,8.90
2016,03,12,14,20,5.30
2016,03,12,14,21,10.60
2016,03,12,14,22,4.10
2016,03,12,14,23,6.00
2016,03,12,14,24,6.10
2016,03,12,14,25,10.00
2016,03,12,14,26,6.30
2016,03,12,14,27,7.60
2016,03,12,14,28,3.40
2016,03,12,14,29,7.20
2016,03,12,14,30,11.10
2016,03,12,14,31,9.70
2016,03,12,14,32,7.90
2016,03,12,14,33,14.20
2016,03,12,14,34,11.30
2016,03,12,14,35,9.10
2016,03,12,14,36,8.40
2016,03,12,14,37,3.80
2016,03,12,14,38,10.00
2016,03,12,14,39,12.60
2016,03,12,14,40,9.80
2016,03,12,14,41,10.60
2016,03,12,14,42,15.50
2016,03,12,14,43,10.70
2016,03,12,14,44,15.00
2016,03,12,14,45,6.60
2016,03,12,14,46,6.10
2016,03,12,14,47,12.30
2016,03,12,14,48,10.00
2016,03,12,14,49,5.50
2016,03,12,14,50,7.40
2016,03,12,14,51,7.70
2016,03,12,14,52,11.40
2016,03,12,14,53,12.20
2016,03,12,14,54,10.70
2016,03,12,14,55,7.20
2016,03,12,14,56,13.20
2016,03,12,14,57,3.50
2016,03,12,14,58,8.70
2016,03,12,14,59,10.00
2016,03,12,15,00,7.20
2016,03,12,15,01,4.90
2016,03,12,15,02,11.30
2016,03,12,15,03,8.90
2016,03,12,15,04,7.10
2016,03,12,15,05,8.40
2016,03,12,15,06,14.60
2016,03,12,15,07,12.80
2016,03,12,15,08,11.50
2016,03,12,15,09,8.70
2016,03,12,15,10,8.20
2016,03,12,15,11,12.20
2016,03,12,15,12,5.40
2016,03,12,15,13,9.20
2016,03,12,15,14,8.60
2016,03,12,15,15,10.30
2016,03,12,15,16,11.30
2016,03,12,15,17,6.60
2016,03,12,15,18,6.70
2016,03,12,15,19,6.00
2016,03,12,15,20,8.50
2016,03,12,15,21,6.30
2016,03,12,15,22,5.60
2016,03,12,15,23,6.10
2016,03,12,15,24,4.60
2016,03,12,15,25,4.20
2016,03,12,15,26,13.20
2016,03,12,15,27,10.80
2016,03,12,15,28,6.60
2016,03,12,15,29,7.30
2016,03,12,15,30,9.80
2016,03,12,15,31,11.90
2016,03,12,15,32,10.10
2016,03,12,15,33,9.40
2016,03,12,15,34,11.30
2016,03,12,15,35,9.70
2016,03,12,15,36,8.90
2016,03,12,15,37,9.40
2016,03,12,15,38,6.10
2016,03,12,15,39,8.80
2016,03,12,15,40,12.80
2016,03,12,15,41,11.60
2016,03,12,15,42,10.00
2016,03,12,15,43,4.50
2016,03,12,15,44,2.70
2016,03,12,15,45,8.60
2016,03,12,15,46,9.20
2016,03,12,15,47,12.30
2016,03,12,15,48,7.70
2016,03,12,15,49,10.20
2016,03,12,15,50,10.40
2016,03,12,15,51,17.90
2016,03,12,15,52,9.00
2016,03,12,15,53,6.00
2016,03,12,15,54,9.10
2016,03,12,15,55,6.00
2016,03,12,15,56,9.80
2016,03,12,15,57,11.00
2016,03,12,15,58,10.30
2016,03,12,15,59,5.40
2016,03,12,16,00,4.70
2016,03,12,16,01,6.10
2016,03,12,16,02,11.00
2016,03,12,16,03,15.00
2016,03,12,16,04,9.20
2016,03,12,16,05,11.30
2016,03,12,16,06,14.10
2016,03,12,16,07,12.70
2016,03,12,16,08,7.40
2016,03,12,16,09,7.50
2016,03,12,16,10,12.80
2016,03,12,16,11,8.50
2016,03,12,16,12,6.00
2016,03,12,16,13,4.50
2016,03,12,16,14,7.50
2016,03,12,16,15,8.20
2016,03,12,16,16,9.80
2016,03,12,16,17,6.90
2016,03,12,16,18,9.40
2016,03,12,16,19,10.20
2016,03,12,16,20,14.70
2016,03,12,16,21,9.80
2016,03,12,16,22,7.20
2016,03,12,16,23,10.10
2016,03,12,16,24,7.60
2016,03,12,16,25,4.70
2016,03,12,16,26,11.00
2016,03,12,16,27,8.30
2016,03,12,16,28,11.10
2016,03,12,16,29,7.70
2016,03,12,16,30,10.70
2016,03,12,16,31,9.50
2016,03,12,16,32,9.40
2016,03,12,16,33,9.20
2016,03,12,16,34,5.70
2016,03,12,16,35,6.90
2016,03,12,16,36,7.10
2016,03,12,16,37,14.40
2016,03,12,16,38,10.50
2016,03,12,16,39,5.50
2016,03,12,16,40,6.00
2016,03,12,16,41,10.60
2016,03,12,16,42,11.10
2016,03,12,16,43,9.20
2016,03,12,16,44,13.20
2016,03,12,16,45,12.50
2016,03,12,16,46,8.50
2016,03,12,16,47,10.00
2016,03,12,16,48,9.70
2016,03,12,16,49,7.70
2016,03,12,16,50,5.00
2016,03,12,16,51,6.60
2016,03,12,16,52,7.00
2016,03,12,16,53,6.50
2016,03,12,16,54,4.20
2016,03,12,16,55,6.90
2016,03,12,16,56,7.50
2016,03,12,16,57,8.90
2016,03,12,16,58,8.60
2016,03,12,16,59,5.40
2016,03,12,17,00,3.80
2016,03,12,17,01,5.00
2016,03,12,17,02,4.50
2016,03,12,17,03,5.40
2016,03,12,17,04,5.40
2016,03,12,17,05,4.10
2016,03,12,17,06,4.10
2016,03,12,17,07,1.40
2016,03,12,17,08,0.50
2016,03,12,17,09,0.20
2016,03,12,17,10,4.90
2016,03,12,17,11,1.70
2016,03,12,17,12,0.70
2016,03,12,17,13,0.70
2016,03,12,17,14,0.00
2016,03,12,17,15,0.00
2016,03,12,17,16,2.70
2016,03,12,17,17,4.60
2016,03,12,17,18,4.60
2016,03,12,17,19,3.70
2016,03,12,17,20,2.90
2016,03,12,17,21,2.00
2016,03,12,17,22,1.10
2016,03,12,17,23,1.00
2016,03,12,17,24,1.40
2016,03,12,17,25,2.00
2016,03,12,17,26,4.50
2016,03,12,17,27,3.70
2016,03,12,17,28,2.00
2016,03,12,17,29,4.80
2016,03,12,17,30,5.20
2016,03,12,17,31,8.10
2016,03,12,17,32,5.40
2016,03,12,17,33,2.40
2016,03,12,17,34,2.40
2016,03,12,17,35,1.90
2016,03,12,17,36,0.50
2016,03,12,17,37,2.30
2016,03,12,17,38,4.60
2016,03,12,17,39,1.90
2016,03,12,17,40,2.50
2016,03,12,17,41,5.60
2016,03,12,17,42,4.40
2016,03,12,17,43,4.30
2016,03,12,17,44,5.60
2016,03,12,17,45,6.60
2016,03,12,17,46,1.70
2016,03,12,17,47,1.50
2016,03,12,17,48,4.60
2016,03,12,17,49,1.30
2016,03,12,17,50,0.50
2016,03,12,17,51,0.70
2016,03,12,17,52,1.80
2016,03,12,17,53,2.30
2016,03,12,17,54,3.40
2016,03,12,17,55,3.60
2016,03,12,17,56,6.20
2016,03,12,17,57,2.30
2016,03,12,17,58,6.00
2016,03,12,17,59,6.70
2016,03,12,18,00,7.30